GEFSSE_con_cape1000_162.txt.gz
Probability
26 42 84 100 100 100 100 100 100 100 100 100 100 100 100 100 100 100 100 100 100 97 94 97 97 94 94 87 94 94 90 97 94 97 97 87 97 97 97 81 84 74 77
45 55 94 100 100 100 100 100 100 100 100 100 100 100 100 100 100 100 100 100 100 100 100 97 94 90 94 87 87 87 84 94 87 90 87 90 84 87 84 77 84 90 90
58 65 68 100 100 100 100 100 100 100 100 100 100 100 100 100 100 100 100 97 100 97 97 94 90 90 90 90 90 87 84 90 94 94 94 77 71 87 81 87 90 87 87
65 77 68 97 100 100 100 100 100 100 100 100 100 100 97 97 97 100 100 100 97 94 94 90 90 84 90 87 84 84 84 90 90 87 65 32 39 77 77 94 90 90 87
74 81 90 100 100 100 100 100 100 100 100 100 100 100 100 100 100 100 100 100 100 97 90 87 87 84 87 90 87 81 81 77 87 77 42 39 71 81 81 84 84 90 87
68 74 87 100 100 100 100 100 100 100 100 100 100 100 97 97 97 97 97 97 97 94 90 87 84 81 81 84 84 84 87 90 94 55 42 52 55 90 81 81 74 81 84
68 68 77 97 97 97 94 94 94 97 100 97 97 97 97 94 94 94 90 90 94 94 87 81 84 87 84 84 84 87 87 90 87 52 58 61 65 84 81 74 68 71 77
71 74 81 94 94 90 90 90 94 94 94 94 90 90 84 90 94 94 90 90 87 90 87 84 84 87 87 87 81 77 71 81 58 42 52 61 90 84 77 74 71 68 68
71 74 74 81 94 90 94 94 94 94 90 90 87 87 84 84 84 84 84 84 81 84 84 77 77 77 87 87 87 87 81 77 48 61 52 65 74 81 81 74 77 68 71
61 71 84 77 81 87 87 81 81 81 81 81 81 77 74 74 77 81 81 84 77 77 74 71 68 81 84 84 84 81 84 77 45 39 52 65 65 74 77 71 68 74 71
65 68 68 71 77 74 71 74 77 71 71 74 71 68 65 68 52 61 55 61 68 71 68 68 71 71 68 74 77 84 81 58 39 52 77 71 71 77 77 77 74 77 71
74 71 68 74 71 68 58 68 68 68 68 68 68 68 65 65 61 48 55 58 61 68 61 61 65 58 61 61 68 77 52 48 52 55 74 58 68 68 61 71 71 68 74
77 71 65 68 74 71 65 65 68 65 65 68 68 68 68 61 58 55 58 58 58 45 58 48 58 58 42 48 55 48 45 42 42 48 58 61 61 58 58 61 65 68 65
68 68 68 68 71 68 65 65 68 65 65 65 65 61 58 65 65 61 65 52 48 52 48 42 52 42 42 39 29 32 35 45 52 55 61 48 48 52 58 58 58 58 58
58 58 68 71 74 74 71 68 65 65 65 65 65 58 58 58 55 55 58 61 58 48 39 48 39 39 45 23 29 23 32 29 39 35 48 45 45 52 52 52 48 55 58
61 58 65 71 68 68 71 71 65 65 61 52 52 52 45 48 45 48 48 55 52 42 45 52 42 39 32 29 26 19 23 16 39 45 48 35 35 42 45 45 48 55 52
58 61 58 55 61 65 61 58 58 55 52 45 48 39 35 39 42 39 35 45 45 35 39 39 29 35 32 29 26 26 26 35 35 39 35 42 39 39 39 35 39 35 35
52 58 52 42 52 58 58 52 45 35 35 32 29 29 29 32 32 42 42 39 39 39 39 35 32 29 29 35 35 26 23 29 35 29 29 35 35 26 35 32 32 26 26
42 42 45 39 45 48 45 45 32 32 32 23 26 26 29 29 23 26 32 35 32 32 32 19 23 23 26 23 26 23 23 23 26 10 13 19 26 32 32 29 13 13 16
42 39 32 32 29 35 26 26 23 23 23 19 19 26 23 26 23 23 23 29 29 26 26 23 19 26 26 23 13 10 13 16 16 13 10 10 10 13 10 10 23 16 13
29 32 32 29 26 23 29 26 19 13 16 13 16 19 19 16 13 19 23 26 23 23 19 16 16 19 16 16 10 3 6 6 13 16 10 10 6 6 10 6 6 13 13
29 29 29 26 23 23 19 13 13 16 13 13 6 10 10 13 13 6 16 19 19 23 19 13 13 16 16 10 13 6 0 3 13 0 6 6 6 3 3 0 3 6 6
29 26 26 23 23 23 16 10 10 13 10 6 6 10 10 6 6 10 10 10 13 13 16 13 13 10 10 6 13 10 6 0 3 0 3 3 3 3 3 3 3 3 6
26 26 26 19 19 16 13 10 10 13 6 10 10 10 6 6 6 6 6 10 13 13 13 10 6 10 3 3 0 3 6 6 0 0 3 3 3 3 3 3 3 6 6
23 23 19 19 16 16 16 19 16 16 10 6 6 6 6 6 6 6 6 6 6 10 10 10 10 6 3 3 0 0 0 3 3 3 0 3 3 3 3 3 3 3 3
23 23 19 19 19 16 13 13 16 13 13 13 10 6 6 6 6 6 6 6 6 6 6 6 6 3 3 3 3 6 0 3 10 6 3 3 3 3 3 3 6 6 3

GEFSSE_con_cape1000_168.txt.gz
Probability
26 52 100 100 100 100 100 100 100 97 97 100 100 100 97 100 97 97 100 97 90 90 84 74 81 77 77 74 74 81 84 90 94 87 74 81 87 97 84 81 87 87 94
35 61 100 100 100 100 100 100 100 100 100 100 100 100 100 100 100 97 94 90 90 81 81 77 74 68 65 74 77 74 81 87 87 84 81 74 77 87 90 90 97 84 84
42 55 97 100 100 100 100 100 100 100 100 100 97 97 100 100 100 87 87 90 84 81 77 71 74 68 74 74 71 68 77 87 84 94 97 84 84 84 87 87 90 90 81
55 58 77 100 100 100 100 100 100 100 100 97 100 97 87 87 87 90 81 77 74 81 68 68 71 71 68 77 71 71 65 71 90 87 94 87 71 87 90 87 81 84 71
55 77 100 100 100 100 100 97 97 97 97 97 90 84 87 84 84 81 84 77 74 81 74 71 77 77 68 68 71 68 74 90 97 97 84 77 81 84 90 77 77 77 77
65 74 94 97 97 97 94 94 94 90 84 84 87 84 77 77 74 74 71 71 71 68 71 65 68 71 68 65 81 81 84 94 90 74 74 77 84 90 87 84 68 65 68
58 65 90 97 97 97 94 94 94 87 81 81 81 84 84 74 74 68 71 74 71 71 71 71 71 77 71 71 71 74 84 90 87 68 65 65 84 97 84 87 68 68 65
61 65 90 97 97 97 94 94 94 90 84 87 87 77 74 77 68 71 74 77 77 71 68 61 65 74 74 74 74 71 87 90 71 45 68 77 94 94 90 74 71 71 65
48 68 71 81 94 94 90 87 81 84 84 84 74 68 71 71 74 74 77 74 71 74 77 68 61 55 71 74 84 84 94 94 81 35 55 71 90 90 87 77 65 68 65
55 55 61 65 77 77 81 81 81 81 77 81 68 68 71 74 71 77 81 71 68 71 65 68 71 71 77 77 81 87 90 87 58 39 48 71 84 81 81 77 71 61 65
55 65 65 68 68 68 68 68 74 74 71 71 68 71 68 71 65 74 65 74 61 61 65 61 65 74 77 84 84 87 81 61 45 48 58 74 77 77 77 77 74 68 61
55 58 55 55 61 65 58 74 71 68 74 74 71 68 74 71 68 58 52 65 65 68 65 68 68 71 68 58 81 77 68 52 48 42 58 77 68 74 65 71 68 58 61
61 61 55 58 65 55 68 71 71 71 68 65 65 68 65 68 65 65 68 71 71 55 55 52 58 55 55 58 52 58 58 48 42 39 55 68 68 58 61 65 65 61 55
61 61 61 68 65 71 71 71 71 68 68 68 61 65 71 68 68 71 74 65 58 58 55 55 58 52 55 45 48 48 35 29 35 39 55 58 55 58 55 55 61 61 58
58 65 68 71 65 71 71 68 71 71 65 65 65 61 65 68 65 68 61 61 55 55 52 48 42 42 42 39 35 35 32 32 29 32 45 48 48 52 55 52 48 45 48
74 71 74 71 71 71 71 71 71 68 68 58 58 55 55 52 55 55 52 55 55 55 42 45 39 35 35 39 32 29 29 23 32 35 35 39 42 45 48 42 45 45 45
77 77 74 68 71 71 68 65 65 61 58 52 52 52 45 45 45 48 45 42 48 45 42 42 39 39 32 29 32 32 23 26 26 35 39 35 35 35 39 39 39 39 42
71 74 71 55 58 65 61 65 55 55 55 52 48 48 29 32 35 39 32 35 39 32 32 35 35 23 23 23 23 23 23 29 23 29 29 35 32 29 29 35 35 35 39
71 68 61 61 58 55 61 58 61 58 52 48 45 42 35 26 26 32 39 39 39 32 29 29 32 26 23 23 19 16 16 19 19 23 23 23 29 26 29 23 26 29 29
68 61 61 55 58 61 61 58 52 45 35 35 39 39 26 23 23 26 35 32 35 32 35 29 23 26 23 23 0 3 10 10 13 26 19 13 23 19 10 16 16 16 23
58 58 61 58 58 61 55 52 48 39 35 35 35 26 16 19 23 32 29 42 35 26 29 19 19 16 19 16 6 3 0 3 6 16 19 16 16 13 13 10 13 10 6
61 58 58 52 52 48 48 52 52 35 35 29 26 19 13 16 16 10 23 26 29 26 26 19 13 13 13 13 6 0 0 3 13 3 10 10 6 6 10 10 10 6 3
45 48 42 39 39 42 35 32 26 29 29 23 19 16 16 16 13 13 13 16 16 19 16 13 6 6 6 10 10 6 0 0 3 3 0 0 6 3 6 3 3 6 6
39 39 39 42 39 32 29 29 26 23 23 16 10 10 10 6 6 13 13 10 10 10 13 6 6 6 6 6 10 6 3 0 0 3 3 0 0 3 3 3 3 6 6
39 32 32 29 29 26 26 23 23 23 23 16 13 10 10 6 6 3 10 6 6 13 10 10 6 6 6 6 6 0 0 6 0 0 0 0 0 0 0 3 3 6 6
32 29 26 26 32 26 23 19 23 19 16 13 13 13 10 10 6 6 10 6 10 10 6 10 10 6 6 6 6 6 0 0 0 0 0 0 0 0 0 3 3 3 3

GEFSSE_con_cape1000_174.txt.gz
Probability
48 97 100 100 100 100 100 100 100 100 100 97 100 100 97 97 100 100 100 97 94 90 90 81 77 84 84 84 81 84 84 90 94 90 94 90 94 94 97 94 90 94 94
58 97 100 100 100 100 100 100 100 100 100 100 100 100 100 100 97 94 97 90 90 87 81 77 81 74 68 71 71 74 74 77 77 87 81 84 94 100 100 100 90 87 94
68 97 100 100 100 100 100 100 100 100 100 100 100 100 97 97 94 94 90 84 87 81 71 61 65 65 58 61 61 68 65 81 84 90 84 77 81 97 100 97 97 97 90
71 94 97 100 100 100 100 100 100 100 100 97 97 97 97 94 90 90 81 81 81 68 58 52 48 55 58 58 65 61 68 81 84 81 61 71 71 90 90 97 94 94 94
65 84 97 100 100 100 94 94 94 94 97 94 87 87 87 90 84 77 71 68 68 68 68 68 61 61 61 65 71 71 74 74 84 81 48 39 55 84 87 87 90 84 87
68 87 97 97 97 94 94 94 94 90 90 84 84 87 84 77 77 74 68 61 58 58 65 55 58 61 65 61 65 74 81 84 71 39 32 35 42 81 87 84 84 87 87
68 87 94 97 97 94 94 94 94 87 87 87 81 77 77 71 77 74 71 68 65 61 58 61 68 68 65 65 65 68 74 81 65 32 26 32 29 87 94 90 84 84 84
71 77 94 94 94 94 94 94 94 90 87 90 84 81 74 77 71 68 65 71 65 52 58 61 68 61 65 61 74 81 84 77 68 32 23 29 52 90 90 90 81 84 81
61 74 81 87 94 94 90 90 87 87 87 81 81 77 77 74 71 71 71 65 68 61 61 61 58 58 65 74 77 81 87 87 68 42 26 19 68 87 87 90 81 81 84
55 71 74 77 74 77 84 84 84 84 81 81 81 77 74 71 65 77 74 71 61 55 52 52 55 68 71 77 81 84 87 77 55 32 13 26 87 87 81 77 77 65 68
48 55 71 68 71 71 68 74 74 74 74 71 68 65 68 55 55 55 58 68 52 45 45 52 55 71 71 71 77 77 65 52 29 16 10 58 84 71 74 77 81 71 74
39 39 48 55 58 58 61 61 58 58 52 52 52 55 48 45 35 48 45 52 52 45 45 48 52 48 42 29 29 48 29 16 13 13 16 65 74 71 71 77 71 68 68
32 32 23 26 35 39 45 45 45 45 48 42 42 39 35 32 32 32 26 35 39 42 42 32 26 19 13 16 16 13 13 13 3 10 23 58 61 61 61 68 65 65 68
23 26 23 29 32 32 35 42 42 42 39 35 39 42 32 23 23 19 16 10 16 16 10 16 16 13 13 16 10 10 10 6 3 3 10 55 58 65 58 61 65 65 68
35 39 32 35 35 26 29 32 35 35 35 32 26 29 23 19 10 10 13 10 6 6 6 6 3 3 10 13 10 6 6 6 6 3 3 32 45 52 55 48 55 61 61
35 32 39 35 32 32 35 35 35 32 32 19 16 19 10 10 13 10 6 3 3 3 3 3 3 3 0 3 3 3 3 3 3 3 0 13 39 42 45 48 55 55 58
23 29 32 35 29 32 32 35 29 29 29 13 13 10 13 13 13 6 6 0 0 0 3 3 0 3 3 0 0 0 0 3 3 3 3 6 10 29 32 35 52 48 55
26 29 29 35 32 29 26 23 16 19 16 6 10 10 10 10 6 3 0 0 0 3 3 3 0 0 3 0 0 0 0 0 0 0 0 0 0 0 19 35 39 39 42
29 32 32 26 26 23 23 23 23 16 10 10 13 6 6 6 10 0 0 0 3 0 0 0 0 0 3 0 0 0 0 0 0 0 0 0 0 0 0 3 23 23 26
29 23 26 26 26 23 19 19 19 16 13 6 6 10 10 6 10 3 0 3 0 0 0 0 0 0 0 3 0 0 0 0 0 0 0 0 0 0 0 0 3 10 13
19 19 26 26 19 19 19 16 16 13 10 6 6 3 6 6 6 3 0 0 0 0 0 0 0 0 0 0 0 0 0 0 0 0 0 0 0 0 0 0 0 0 10
23 19 16 23 23 19 19 16 13 6 6 0 0 0 0 0 0 3 0 0 0 0 0 0 0 0 0 0 0 0 0 0 0 0 0 0 0 0 0 0 0 0 0
26 16 16 19 19 19 19 13 13 6 0 0 0 0 0 0 0 0 0 0 0 0 0 0 0 0 0 0 0 0 0 0 0 0 0 0 0 0 0 0 0 0 0
26 19 16 16 19 19 19 16 13 6 3 0 0 0 0 0 0 0 0 0 0 0 0 0 0 0 0 0 0 0 0 0 0 0 0 0 0 0 0 0 0 0 0
23 19 16 16 16 19 19 16 10 3 0 0 0 0 0 0 0 0 0 0 0 0 0 0 0 0 0 0 0 0 0 0 0 0 0 0 0 0 0 0 0 0 0
13 10 16 13 16 16 16 10 3 0 0 0 0 0 0 0 0 0 0 0 0 0 0 0 0 0 0 0 0 0 0 0 0 0 0 0 0 0 0 0 0 0 0

GEFSSE_con_cape1000_180.txt.gz
Probability
13 65 97 97 94 97 97 97 94 94 97 100 97 97 100 100 100 97 90 90 87 87 84 74 74 81 74 65 68 77 81 87 84 87 90 90 94 97 97 100 94 84 94
26 74 94 97 94 100 100 100 100 100 100 100 100 97 94 94 97 94 90 87 87 87 77 71 65 65 61 55 58 65 71 87 84 84 84 84 87 97 100 94 94 90 97
58 87 94 97 97 100 100 100 97 100 100 97 97 94 94 90 90 90 87 87 87 77 71 61 55 58 45 48 52 65 71 71 68 68 84 87 90 87 97 97 94 97 97
74 90 94 97 97 100 97 97 97 94 94 94 90 90 87 87 87 87 71 71 68 65 61 52 52 48 48 55 52 58 61 61 68 71 71 74 84 87 100 97 90 94 94
77 81 87 97 97 97 97 97 94 90 90 87 87 81 81 77 74 74 61 65 65 55 52 48 45 52 52 52 61 58 61 68 71 61 55 61 61 87 94 94 90 87 90
77 81 94 97 97 97 94 94 90 90 90 87 84 84 81 74 81 71 65 58 61 55 55 55 52 58 58 48 48 58 61 65 55 45 42 45 58 81 97 87 81 84 90
77 77 94 97 97 94 90 90 90 90 87 84 84 81 74 77 77 74 71 61 58 58 58 65 61 65 61 52 48 55 61 71 55 42 35 35 55 77 90 90 87 90 90
74 77 87 97 97 90 90 90 90 87 87 81 77 74 71 77 71 68 68 61 52 48 55 65 58 55 65 58 61 61 68 58 52 39 39 42 55 84 90 90 90 90 84
71 74 77 87 90 94 94 90 87 81 77 81 77 71 71 71 71 74 71 71 58 55 52 48 48 48 58 65 68 71 71 74 48 52 32 39 58 87 90 87 84 84 87
68 65 68 71 74 77 74 81 77 74 74 74 71 68 61 65 58 61 65 65 55 55 45 35 42 42 65 68 71 74 71 68 45 48 42 32 61 87 87 90 90 84 84
58 52 61 61 58 58 68 74 68 71 71 65 65 61 58 55 48 48 55 55 48 45 39 42 39 42 45 48 52 65 48 39 26 35 35 45 81 84 84 84 81 81 81
45 52 55 58 55 61 61 55 55 55 55 52 48 48 48 39 29 48 48 52 52 45 45 42 42 42 32 29 23 35 23 19 16 23 26 42 71 74 74 74 74 74 68
32 39 42 45 58 55 52 52 48 45 42 42 42 39 32 32 26 29 26 32 29 29 32 32 29 23 19 16 19 16 16 19 16 10 10 45 58 61 61 68 71 74 71
19 29 42 42 45 52 48 52 45 45 42 42 39 29 26 26 19 19 13 13 13 10 10 3 6 10 10 10 10 16 16 16 10 10 10 23 48 48 52 61 61 61 61
26 19 32 45 42 35 29 29 42 35 42 32 26 23 26 19 16 13 10 3 3 3 0 3 3 0 3 6 6 6 10 10 6 6 6 16 35 39 42 45 55 52 58
23 26 26 29 29 29 19 19 23 23 19 16 16 16 16 10 3 0 0 0 0 0 3 0 0 0 0 0 3 6 3 3 3 3 6 6 16 19 32 32 42 42 35
13 16 16 16 23 16 16 13 6 6 6 3 3 3 6 10 3 0 0 0 0 0 0 0 0 0 0 0 3 0 0 0 0 0 3 3 0 10 16 26 29 29 32
10 10 13 16 10 3 3 6 6 3 3 3 3 3 3 6 3 0 0 0 0 0 0 0 0 0 0 0 0 0 0 0 0 0 0 0 0 0 6 13 29 29 23
3 10 6 10 6 3 6 3 3 3 3 3 3 3 3 3 0 0 0 0 0 0 0 0 0 0 0 0 0 0 0 0 0 0 0 0 0 0 0 3 16 16 23
3 3 6 6 10 10 6 3 3 3 3 0 0 3 3 3 3 0 0 0 0 0 0 0 0 0 0 0 0 0 0 0 0 0 0 0 0 0 0 0 3 6 10
13 13 10 10 10 6 10 6 3 3 3 0 0 0 3 3 3 3 0 0 0 0 0 0 0 0 0 0 0 0 0 0 0 0 0 0 0 0 0 0 0 0 0
13 10 10 10 10 10 10 3 3 3 0 0 0 0 0 3 3 3 0 0 0 0 0 0 0 0 0 0 0 0 0 0 0 0 0 0 0 0 0 0 0 0 0
16 10 10 10 10 6 6 3 0 0 0 0 0 0 0 0 0 0 0 0 0 0 0 0 0 0 0 0 0 0 0 0 0 0 0 0 0 0 0 0 0 0 0
13 13 10 10 10 10 3 0 0 0 0 0 0 0 0 0 0 0 0 0 0 0 0 0 0 0 0 0 0 0 0 0 0 0 0 0 0 0 0 0 0 0 0
13 6 10 10 10 10 6 3 0 0 0 0 0 0 0 0 0 0 0 0 0 0 0 0 0 0 0 0 0 0 0 0 0 0 0 0 0 0 0 0 0 0 0
10 6 6 6 6 6 10 3 0 0 0 0 0 0 0 0 0 0 0 0 0 0 0 0 0 0 0 0 0 0 0 0 0 0 0 0 0 0 0 0 0 0 0

GEFSSE_con_cape1000_186.txt.gz
Probability
10 48 87 94 97 94 94 100 100 100 100 97 97 100 100 97 94 90 90 87 81 71 68 65 58 52 58 58 68 68 74 68 71 71 81 84 90 90 94 84 87 94 94
16 52 84 90 97 97 94 94 100 100 100 100 97 97 90 90 90 87 84 81 81 77 61 52 55 55 48 52 55 58 65 61 68 74 77 77 81 84 94 84 90 94 94
35 71 71 94 97 97 97 97 100 97 94 94 94 87 87 84 84 81 77 77 74 71 58 55 55 45 48 52 55 61 68 65 61 71 81 84 84 84 87 90 90 97 90
65 77 65 94 94 97 97 97 97 94 94 90 84 84 84 84 77 74 71 68 68 61 48 45 42 45 48 52 52 61 58 58 65 77 90 58 74 97 94 81 90 87 94
61 77 94 94 94 97 97 97 94 94 94 84 84 84 81 81 74 65 61 65 65 55 48 48 45 52 52 52 58 55 65 65 65 61 58 68 87 97 90 90 94 97 90
61 71 84 90 90 90 94 94 94 94 87 87 87 84 84 71 65 65 61 58 55 55 48 45 48 52 52 42 48 55 52 61 55 48 55 55 71 97 87 90 90 87 90
55 58 74 90 90 90 90 90 94 90 84 84 84 81 74 77 65 58 55 55 45 45 48 48 48 45 42 39 39 48 52 52 61 39 52 58 68 84 81 94 97 90 90
48 58 77 90 90 90 90 87 84 87 84 84 81 81 71 71 68 61 68 61 55 55 48 52 58 48 52 45 48 52 52 65 39 23 35 52 74 74 77 90 94 87 90
48 61 71 77 84 87 87 84 84 84 74 74 71 68 61 61 61 58 58 52 48 48 48 48 39 35 39 45 55 55 52 58 45 48 26 48 71 77 71 84 87 84 90
48 58 74 74 74 65 68 77 74 71 71 68 68 65 65 68 65 55 55 52 45 45 42 39 39 35 32 42 42 45 48 42 26 29 35 52 77 77 71 81 84 87 90
48 52 61 65 65 68 68 68 68 71 68 68 65 61 65 58 39 52 42 55 48 45 45 45 39 35 35 45 42 45 39 26 19 26 42 55 71 71 71 81 84 81 84
58 61 71 68 65 68 61 71 71 61 68 65 61 58 61 61 61 35 48 52 52 48 48 42 42 42 35 32 35 39 29 23 19 23 35 55 52 65 68 68 71 74 77
61 71 71 74 71 68 71 71 65 71 68 65 61 68 65 61 52 35 45 52 55 48 52 42 39 35 35 39 45 42 29 23 16 23 32 45 42 55 55 52 58 68 74
61 71 74 71 71 71 71 71 68 68 68 61 68 61 58 55 42 39 45 48 42 45 42 42 42 26 32 35 32 32 26 29 13 19 35 32 29 29 42 42 45 58 65
68 71 71 74 74 77 81 71 55 61 55 55 58 52 52 52 48 45 45 45 42 39 39 42 29 26 26 23 16 23 19 16 13 6 19 26 29 29 29 23 32 42 52
65 68 65 68 77 81 81 77 58 58 58 48 48 45 48 45 48 45 42 45 45 45 35 35 29 35 26 23 19 16 16 13 13 16 16 13 26 29 23 23 29 39 39
68 68 61 65 74 77 77 65 55 52 52 48 48 45 45 45 45 45 42 45 39 35 39 35 29 26 26 16 13 13 19 16 13 13 10 10 6 16 13 19 16 23 26
68 68 61 55 65 71 68 55 52 48 45 45 42 35 35 35 39 39 39 35 32 32 26 29 26 19 19 16 10 3 3 3 3 0 3 6 6 10 10 16 16 16 16
71 68 68 65 65 55 52 52 45 42 42 39 32 32 32 32 29 35 35 35 26 23 26 23 16 19 16 10 10 10 3 6 3 0 3 3 3 6 10 13 16 10 10
65 65 58 58 58 52 48 39 35 42 39 32 29 32 32 32 32 32 29 26 23 19 19 23 13 13 16 13 3 3 3 3 3 3 0 3 6 6 6 6 10 19 10
61 55 58 58 55 55 45 39 39 35 39 29 29 32 32 32 29 29 23 23 23 19 19 10 13 6 10 6 10 3 3 3 3 6 10 6 0 0 6 6 10 10 10
55 61 58 61 58 55 52 52 42 32 32 26 29 32 29 26 23 19 19 19 19 16 16 13 10 6 3 6 6 0 0 0 6 0 3 6 0 3 0 0 3 3 10
52 55 45 58 58 55 52 39 32 32 32 26 29 29 26 19 19 19 19 19 13 13 16 13 10 6 6 3 3 0 3 0 0 3 3 3 3 3 3 3 3 3 0
45 52 52 55 55 48 45 35 26 32 29 29 26 26 19 23 23 19 19 6 10 10 16 10 6 10 10 0 3 0 0 3 0 6 6 3 3 3 3 0 0 0 0
35 45 45 39 39 48 45 42 35 35 29 19 23 19 23 19 23 16 16 10 13 10 13 6 10 10 6 6 3 3 0 0 0 0 3 3 3 3 3 3 0 3 0
32 32 42 35 35 45 39 35 39 35 26 23 23 19 16 13 13 16 10 13 13 10 13 10 10 10 6 6 6 6 6 3 3 3 0 0 3 3 3 3 3 6 3

GEFSSE_con_cape1000_192.txt.gz
Probability
45 45 100 100 100 100 97 100 100 100 100 100 100 97 94 81 84 87 74 68 68 48 39 35 42 42 55 52 48 55 61 58 61 55 68 68 74 81 84 77 81 90 94
52 55 100 100 100 100 97 97 100 100 97 94 94 90 84 77 77 77 68 65 58 52 29 35 35 42 48 45 52 55 55 55 58 61 65 68 77 87 77 84 94 94 94
55 61 87 100 100 100 100 94 94 94 94 94 77 81 77 81 77 68 61 52 58 48 35 39 42 35 45 48 55 55 48 45 52 68 81 84 87 94 84 74 87 90 90
61 55 71 100 100 97 97 97 87 94 87 84 81 81 74 68 65 65 55 55 58 52 42 35 32 39 35 48 55 48 48 61 61 71 68 77 87 100 94 87 84 87 87
55 65 94 97 97 94 90 87 84 84 81 81 71 68 61 52 52 48 48 52 42 45 39 32 35 35 39 45 48 45 42 55 68 71 55 71 77 87 94 84 87 84 87
58 58 87 94 94 87 87 87 81 84 77 77 74 65 58 52 42 52 48 39 42 45 48 42 45 42 39 39 42 35 39 52 61 52 52 58 84 94 94 87 81 87 90
61 65 68 90 90 84 84 84 84 84 81 74 65 61 55 52 52 48 52 48 45 42 39 35 35 39 35 39 42 39 48 65 65 45 42 42 81 90 84 81 84 90 94
61 61 68 87 90 84 84 87 84 84 77 71 68 61 61 55 52 52 48 48 45 39 39 42 39 35 32 35 42 48 52 55 45 32 45 52 87 87 81 81 84 87 84
55 68 71 74 87 87 87 84 84 77 74 71 65 65 68 61 58 55 52 48 52 42 39 42 39 42 39 35 39 39 48 52 48 32 26 52 71 77 81 81 87 87 87
58 61 61 65 74 77 81 84 81 77 74 71 65 71 68 65 58 58 61 52 48 48 42 39 42 42 39 42 45 52 55 58 35 19 16 55 81 77 71 71 74 84 81
45 58 55 61 68 68 58 68 77 71 71 71 65 65 68 65 61 61 52 58 48 48 48 48 45 45 48 45 52 55 52 32 19 19 32 52 68 71 71 74 74 81 77
45 52 52 58 68 61 61 74 71 61 68 68 68 65 68 65 71 48 48 55 52 52 55 52 48 45 45 39 52 55 35 23 19 10 35 61 65 61 58 65 65 71 74
55 65 55 68 74 74 74 74 74 68 74 71 68 71 74 68 65 55 58 58 58 55 52 48 45 42 39 29 42 42 32 23 16 19 35 55 52 52 42 52 61 65 61
61 61 68 68 71 74 74 74 68 71 74 68 74 71 61 71 71 61 61 55 55 52 48 45 48 39 35 35 35 32 32 23 32 23 32 45 52 42 39 39 45 52 52
71 61 68 71 71 81 81 81 71 77 77 77 74 65 68 61 58 52 52 55 45 48 39 45 42 35 32 32 26 26 26 23 23 16 23 42 42 45 39 35 32 32 39
71 71 71 71 77 77 77 81 77 77 77 68 71 58 55 55 55 55 52 52 42 39 35 32 29 29 29 26 26 26 26 26 26 32 23 29 39 45 45 35 35 32 29
77 74 77 74 77 77 77 74 68 68 55 55 52 55 52 52 48 48 48 45 35 35 35 32 29 32 26 29 26 32 29 35 29 29 26 23 26 35 42 42 39 29 26
71 74 77 68 74 71 71 71 65 61 61 58 55 52 45 45 48 48 48 39 35 35 35 35 29 35 35 26 23 23 23 26 26 26 26 23 16 6 23 32 45 26 23
68 65 71 71 71 71 71 68 65 65 68 48 52 42 42 39 35 42 42 35 32 35 35 29 32 26 19 16 13 19 19 19 26 3 10 10 13 19 6 6 19 26 16
65 65 65 68 68 71 65 68 61 55 48 45 39 42 42 39 39 39 35 35 35 32 32 29 23 19 16 13 3 0 16 19 13 3 13 3 13 13 3 0 3 6 13
61 61 58 61 65 65 61 61 52 52 55 45 39 39 39 39 39 35 35 35 35 32 23 19 16 13 10 16 13 10 6 3 0 6 6 10 3 3 3 3 3 0 3
58 58 58 58 58 61 58 55 52 55 45 42 39 35 35 35 32 32 35 26 29 29 23 16 19 19 16 10 10 10 6 0 3 0 0 3 3 3 0 0 0 6 3
58 58 58 58 58 55 55 48 52 48 35 42 42 35 35 32 29 29 29 29 29 26 16 16 13 16 10 10 16 10 3 0 3 3 0 0 0 3 3 0 0 6 3
48 55 58 55 55 55 48 45 48 42 39 39 35 35 35 26 29 29 29 29 29 19 19 16 13 13 10 6 13 13 6 6 3 3 3 3 0 0 0 0 0 0 3
42 52 52 55 55 55 52 48 42 39 39 35 35 29 29 29 26 29 29 26 26 19 19 13 13 13 13 16 13 10 10 10 0 0 3 3 3 0 0 0 0 0 0
45 42 48 52 55 52 52 48 42 39 39 32 26 23 19 23 29 26 23 19 16 13 16 13 16 16 16 10 10 10 6 6 3 3 3 3 3 0 0 0 0 0 0

GEFSSE_con_cape1000_198.txt.gz
Probability
39 81 100 100 97 97 100 100 97 97 94 90 90 94 87 81 81 77 77 74 77 74 71 68 58 52 55 55 48 52 55 55 65 65 68 71 81 81 90 97 97 87 94
48 81 100 100 100 100 100 100 97 94 90 90 94 94 87 81 81 74 71 71 68 55 45 39 35 42 45 45 42 42 42 45 52 61 65 65 68 84 94 100 97 90 97
52 81 97 100 100 100 100 100 97 94 90 87 90 84 81 81 74 68 65 61 58 55 42 35 32 32 39 39 42 45 32 35 45 58 55 48 68 90 94 97 97 97 97
48 74 90 100 100 97 97 94 90 87 90 84 81 81 81 71 65 65 58 58 55 45 39 35 32 32 35 39 48 39 42 48 45 48 35 35 39 81 97 100 97 97 94
39 55 87 100 97 97 94 90 87 84 81 81 81 81 74 65 65 65 58 55 55 45 39 32 32 39 32 35 32 32 39 42 48 52 16 13 3 71 90 90 90 90 90
35 58 90 97 97 97 90 87 87 84 81 77 77 77 68 61 58 61 61 52 48 45 42 39 35 35 32 29 29 26 32 42 42 26 19 19 16 65 81 77 84 81 90
39 61 84 97 94 90 90 90 87 81 77 77 74 71 61 61 65 55 48 45 42 42 42 39 35 35 35 29 23 29 48 42 35 26 10 16 19 65 77 81 84 87 90
42 58 74 94 90 90 90 87 84 81 77 77 74 71 65 61 58 52 52 45 48 39 39 35 35 35 32 29 32 32 45 39 35 23 13 10 32 74 77 81 84 84 90
42 61 71 74 81 87 87 87 84 84 77 74 65 58 58 61 61 58 52 52 48 42 39 35 35 35 35 35 35 35 48 48 35 19 13 16 39 71 74 74 77 84 87
48 55 61 65 65 74 84 87 84 84 68 65 65 61 65 65 68 58 58 55 48 48 42 45 45 52 42 42 42 45 48 48 29 16 16 13 48 71 74 74 71 71 74
32 42 48 58 55 58 61 77 77 74 71 68 61 65 61 52 45 55 55 58 52 52 48 52 52 52 45 42 48 52 48 35 23 16 13 23 52 55 58 58 61 71 71
32 32 39 42 52 52 58 61 55 58 58 58 58 58 58 35 35 48 58 58 58 55 52 55 52 48 39 35 29 39 32 16 16 19 13 42 55 55 55 55 55 65 68
32 32 32 39 42 42 39 45 48 48 48 45 48 45 35 29 26 32 35 45 45 42 42 42 45 35 32 16 13 10 10 13 13 13 19 48 45 42 45 45 55 58 61
42 42 39 42 42 35 35 35 35 29 32 35 35 35 29 26 19 23 23 26 26 26 26 23 23 23 23 13 13 10 10 6 6 6 3 42 39 42 39 45 45 52 52
35 35 39 29 35 29 26 29 32 29 32 29 35 39 23 19 19 13 16 13 10 10 13 16 10 13 13 10 6 10 3 6 6 3 0 35 39 35 35 42 42 42 45
35 39 42 48 32 29 29 29 32 26 26 26 29 26 32 19 16 10 13 13 3 6 6 10 6 3 3 3 3 3 3 3 3 0 0 6 32 35 32 32 32 35 42
26 39 48 52 39 39 29 35 29 32 35 29 23 26 23 16 13 10 13 13 3 3 3 0 0 0 0 3 3 3 3 3 0 0 0 0 3 19 32 35 32 35 29
32 45 52 55 39 32 23 29 29 32 29 23 23 26 23 13 10 10 6 10 6 3 3 0 0 0 0 0 0 3 3 0 0 0 0 0 0 0 16 26 29 23 23
35 42 48 39 29 29 23 26 26 23 23 23 23 23 19 19 13 6 3 10 10 6 6 0 0 0 0 0 0 0 0 0 0 0 0 0 0 0 0 3 26 26 23
35 39 42 39 35 29 26 19 19 19 16 19 19 16 16 16 10 6 6 10 10 6 3 0 0 0 0 0 0 0 0 0 0 0 0 0 0 0 0 0 0 10 19
32 35 35 32 32 32 29 23 19 16 16 16 13 13 13 13 10 3 3 3 3 0 0 3 0 0 0 0 0 0 0 0 0 0 0 0 0 0 0 0 0 0 0
35 35 32 32 32 29 23 19 13 13 16 16 10 16 6 6 6 6 3 0 3 0 0 0 3 0 0 0 0 0 0 0 0 0 0 0 0 0 0 0 0 0 0
39 32 29 35 29 26 23 19 13 6 3 6 6 6 6 6 3 3 0 0 0 0 0 0 0 0 0 0 0 0 0 0 0 0 0 0 0 0 0 0 0 0 0
35 35 32 32 29 23 19 19 13 10 10 6 6 6 6 3 3 3 0 0 0 0 0 0 0 0 0 0 0 0 0 0 0 0 0 0 0 0 0 0 0 0 0
32 29 29 32 29 23 26 23 16 10 6 6 10 6 3 3 3 3 0 0 0 0 0 0 0 0 0 0 0 0 0 0 0 0 0 0 0 0 0 0 0 0 0
26 26 26 26 26 19 26 19 19 10 10 6 6 6 6 3 3 3 0 0 0 0 0 0 0 0 0 0 0 0 0 0 0 0 0 0 0 0 0 0 0 0 0

GEFSSE_con_cape1000_204.txt.gz
Probability
23 65 97 97 94 94 90 94 94 90 94 94 90 90 87 84 84 84 84 84 81 81 74 68 68 65 52 48 48 48 48 48 52 55 48 58 65 68 81 90 97 90 97
32 71 97 97 94 97 94 94 94 90 90 90 87 87 87 87 84 84 84 81 74 71 65 58 61 55 48 45 45 35 39 48 52 52 58 52 52 65 84 90 90 87 94
52 77 97 97 100 97 94 94 94 97 94 90 87 87 84 84 77 77 74 68 68 68 58 58 55 42 42 39 39 35 35 32 42 48 58 52 55 58 71 90 97 97 90
58 74 90 97 100 97 97 97 90 90 90 87 84 81 81 81 81 68 68 68 65 61 52 35 39 35 42 35 42 35 35 39 42 39 32 39 45 58 71 77 87 87 87
58 74 87 97 100 97 90 87 84 90 87 84 81 81 81 77 71 68 65 61 58 55 45 39 39 39 32 39 39 35 29 32 35 32 19 26 39 45 68 71 84 90 87
45 68 84 97 97 94 84 84 84 81 81 74 74 81 77 74 71 61 61 65 55 52 45 42 42 32 32 32 35 29 29 35 32 26 26 29 32 48 68 65 74 84 81
39 52 77 97 94 90 81 84 84 84 77 74 74 74 71 68 68 68 65 58 48 48 45 45 42 39 35 35 32 32 35 42 35 26 19 23 26 48 61 61 84 84 84
39 48 68 90 87 87 84 81 81 77 77 74 74 71 65 65 68 65 68 65 52 48 45 45 42 39 35 35 35 32 39 35 32 26 19 16 26 58 61 68 77 84 84
39 45 61 77 81 81 81 81 81 77 74 74 74 65 61 65 65 68 68 61 55 52 45 45 42 45 39 39 35 35 42 42 32 26 19 13 29 48 58 71 74 71 74
35 39 45 61 74 81 77 81 81 77 74 71 65 61 61 65 65 65 68 68 55 48 52 45 45 48 45 42 45 48 48 39 29 29 23 19 32 48 58 65 61 58 68
35 32 35 45 48 52 58 77 74 71 68 61 61 61 65 55 52 58 61 65 58 52 52 52 48 45 39 45 48 48 35 32 29 23 16 26 45 52 58 55 58 61 58
26 29 32 29 35 42 52 55 55 58 55 52 52 55 52 45 42 55 55 55 55 52 52 52 48 48 42 35 35 39 32 29 26 23 13 35 52 58 52 55 48 52 58
19 26 35 32 35 39 42 35 45 48 48 48 45 45 42 32 35 39 39 39 45 45 48 48 42 32 35 35 29 23 23 16 16 16 13 32 45 48 45 52 48 48 52
19 23 29 32 35 35 32 32 32 35 39 39 35 35 32 26 26 23 29 29 32 26 23 23 19 23 23 19 16 13 13 16 13 13 13 23 39 45 39 39 39 45 48
26 26 26 26 29 29 29 29 29 32 29 29 29 29 29 26 23 13 13 16 16 13 6 13 13 16 13 10 6 10 10 10 13 13 10 16 35 35 32 32 32 32 39
26 23 26 26 29 29 29 26 29 26 29 26 23 19 16 19 13 10 3 3 3 13 6 6 10 6 10 13 13 10 10 13 10 6 10 16 29 29 32 32 29 29 26
29 23 19 26 29 26 19 23 23 23 23 19 19 13 16 16 3 3 3 3 3 0 0 3 6 3 3 6 10 13 10 3 6 3 3 3 3 16 26 32 26 23 19
29 26 26 32 26 16 16 19 19 16 16 13 13 13 13 13 3 3 3 3 3 0 0 0 3 3 0 0 0 3 3 3 3 3 0 0 0 3 6 13 26 29 23
23 29 23 19 23 19 19 13 16 16 16 16 13 13 13 10 6 3 3 3 0 0 0 0 0 0 0 0 0 0 3 3 3 3 3 0 0 0 3 6 13 23 26
16 26 26 16 23 19 19 13 16 13 13 16 16 13 13 13 6 6 3 0 0 0 0 0 0 0 0 0 0 0 0 3 3 3 0 0 0 0 0 0 3 6 13
10 16 23 16 16 16 13 13 10 13 13 13 6 10 3 6 3 3 3 0 0 0 0 0 0 0 0 0 0 0 0 0 0 0 0 0 0 0 0 0 0 0 3
10 13 19 16 16 13 13 10 13 13 10 10 13 6 3 3 3 3 0 0 0 0 0 0 0 0 0 0 0 0 0 0 0 0 0 0 0 0 0 0 0 0 0
6 10 19 16 16 16 10 13 13 13 13 13 10 6 6 6 3 3 3 0 0 0 0 0 0 0 0 0 0 0 0 0 0 0 0 0 0 0 0 0 0 0 0
3 10 13 13 10 6 10 10 10 10 10 10 10 6 3 3 3 3 3 3 0 0 0 0 0 0 0 0 0 0 0 0 0 0 0 0 0 0 0 0 0 0 0
10 10 10 10 3 3 10 10 6 6 6 3 0 0 3 3 3 3 3 3 0 0 0 0 0 0 0 0 0 0 0 0 0 0 0 0 0 0 0 0 0 0 0
10 6 10 13 10 6 3 6 6 10 6 3 3 0 0 3 3 3 3 3 0 0 0 0 0 0 0 0 0 0 0 0 0 0 0 0 0 0 0 0 0 0 0